Tracking 19246 objects as of 19-Aug-2018
HD Live streaming from Space Station
objects crossing your sky now

NOAA 16 DEB

Track NOAA 16 DEB now!
10-day predictions


NORAD ID: 41233
Int'l Code: 2000-055EN
Perigee: 845.6 km
Apogee: 908.4 km
Inclination: 98.9 °
Period: 102.3 minutes
Semi major axis: 7248 km
RCS: Unknown
Launch date: September 21, 2000
Source: United States (US)
Launch site: AIR FORCE WESTERN TEST RANGE (AFWTR)

Note: This is SATELLITE DEBRIS
aabbcc
Your satellite tracking list
Your tracking list is empty




NASA's NSSDC Master Catalog

Two Line Element Set (TLE):
1 41233U 00055EN  18231.40302651 +.00000497 +00000-0 +32165-3 0  9999
2 41233 098.8530 294.4690 0043305 325.3949 034.4403 14.06937289137921
Source of the keplerian elements: AFSPC